Vorticity
-2 9 21 27 25 20 10 -5 -13 -14 -11 -6 -2 0 -0 -5 -10 -11 -10 -9 -7 -4 1 5 6 5 4 4 16 25 27 19 14 14 18 21 20 18 15 12 9 6 4 4 4 4 4 4 5 5 6 6 6 7 6 6 6 5 5 5 5 5 5 4 4 3 3 2 1
-15 -5 7 16 23 28 30 24 10 -1 -7 -7 -2 1 3 1 -3 -8 -13 -18 -18 -12 -4 5 8 8 6 6 15 23 26 21 15 16 20 23 19 16 13 12 10 9 7 5 4 3 3 4 5 5 6 6 6 6 6 6 6 5 5 5 5 5 5 5 4 4 3 2 2
-16 -11 -0 11 14 22 30 34 26 15 5 -1 1 3 5 4 -1 -8 -15 -21 -23 -20 -11 1 6 7 7 7 13 19 23 22 19 19 20 20 15 12 11 12 11 9 7 5 4 3 3 4 5 6 6 6 6 6 6 6 6 6 6 6 6 6 5 5 5 4 3 2 3
-4 -3 3 12 11 14 19 26 22 15 7 3 4 5 5 4 -2 -7 -12 -16 -18 -16 -11 -2 3 5 5 6 10 14 19 21 22 23 22 17 11 9 9 10 9 8 6 4 3 3 4 5 5 6 6 6 6 6 6 6 6 6 6 7 7 6 6 6 5 4 3 3 3
11 9 10 13 12 10 9 12 11 7 5 4 5 6 5 3 -1 -4 -6 -7 -6 -5 -2 1 2 3 4 5 8 12 16 21 25 25 22 15 8 5 5 7 6 5 4 3 3 4 5 5 6 6 6 6 5 5 5 6 6 6 7 7 7 7 7 7 6 5 4 4 3
17 15 14 14 14 11 7 5 4 3 3 4 5 6 6 3 0 -1 -1 0 2 3 3 2 1 2 3 6 10 12 15 20 23 23 18 11 5 3 2 3 3 3 3 4 5 6 6 6 6 6 6 5 5 5 6 6 6 7 7 8 8 8 8 7 6 5 5 4 4
16 16 15 15 15 14 12 9 7 5 5 5 5 6 6 5 3 1 1 3 6 6 4 1 2 4 9 16 18 16 13 15 18 17 13 7 3 1 1 1 2 4 6 7 8 7 7 7 6 5 5 5 5 6 6 6 7 7 7 8 8 8 8 7 6 6 5 4 4
16 15 15 15 16 16 15 13 11 9 7 6 5 6 7 6 4 3 3 4 6 6 5 3 6 13 21 30 27 17 9 8 11 11 9 5 2 2 2 4 6 9 11 11 9 8 7 6 5 5 5 5 5 6 6 7 7 7 8 8 8 8 7 7 6 5 5 4 4
18 17 16 15 15 14 13 12 9 8 7 6 6 6 6 5 4 3 4 6 9 11 11 12 19 28 35 38 26 12 2 2 5 6 6 5 4 4 6 10 13 14 14 12 9 7 6 5 4 4 5 5 6 6 7 7 7 7 8 8 7 7 7 6 6 5 4 4 4
20 18 17 16 14 12 10 8 6 5 5 5 5 5 5 4 3 4 6 11 16 20 23 27 35 40 39 30 15 3 -4 -2 2 4 5 6 6 7 10 14 16 15 13 10 7 6 5 4 4 4 5 5 6 7 7 7 7 7 7 7 7 6 6 5 5 4 3 3 3
21 20 19 17 15 12 10 7 6 5 4 5 4 4 4 4 5 6 8 13 22 30 36 40 42 37 28 15 5 -2 -5 -2 2 5 6 7 7 8 10 14 14 13 10 7 5 4 4 3 4 4 5 6 6 7 7 7 7 7 7 6 6 5 5 5 4 3 3 3 3
22 22 22 20 18 15 12 10 9 8 7 6 5 5 6 9 10 7 5 8 20 30 37 38 32 24 16 6 1 -1 -0 3 7 9 9 9 7 7 9 11 11 9 6 4 3 3 3 4 4 5 6 7 7 7 7 7 7 6 6 6 6 5 4 4 3 3 3 3 3
23 23 24 24 23 21 18 16 14 13 12 11 9 10 13 17 14 6 -2 -1 13 24 29 26 20 14 9 3 1 2 5 10 13 14 13 11 8 7 7 8 7 4 2 1 2 3 4 5 6 7 7 7 7 6 6 6 6 6 6 6 5 5 4 4 4 3 3 3 3
23 24 24 25 25 25 23 21 20 18 17 16 15 17 19 22 14 3 -3 1 12 19 21 18 16 13 10 5 1 2 5 11 15 17 17 15 11 8 6 5 2 -1 -3 -2 1 4 6 8 9 8 8 7 7 6 6 5 5 6 6 6 5 5 4 4 4 3 3 3 4
22 23 24 23 24 24 24 22 21 20 19 19 18 19 19 17 9 5 5 13 19 20 18 15 16 16 14 9 3 0 1 5 12 16 19 17 14 10 7 3 -2 -5 -6 -4 1 6 10 12 11 9 8 7 6 5 5 4 4 4 5 5 5 4 4 3 3 3 3 3 4
19 22 23 23 22 21 21 21 20 19 19 18 17 15 12 10 9 13 19 27 26 21 15 12 13 15 16 14 5 -2 -5 -3 5 12 17 18 15 11 6 -0 -5 -7 -6 -2 5 10 13 14 12 10 8 7 6 5 4 3 2 2 2 3 3 2 2 2 2 2 2 3 4
14 18 21 23 23 22 21 20 19 19 18 17 15 12 11 12 16 22 27 29 24 17 11 6 8 12 15 15 6 -2 -8 -8 -1 5 10 13 12 8 3 -3 -6 -5 -1 5 11 14 15 14 11 9 7 6 5 4 3 1 0 0 0 1 1 1 0 0 0 0 0 1 2
9 12 16 20 22 23 22 22 21 20 18 17 16 16 17 19 22 24 22 17 14 10 7 3 5 9 13 15 9 1 -6 -8 -4 -0 3 4 4 3 1 -1 1 4 9 14 16 16 15 12 10 8 7 6 4 3 1 0 -1 -1 -0 1 1 2 3 4 4 4 3 2 1
7 8 10 13 18 21 22 23 23 22 21 20 19 20 21 21 21 18 12 5 4 5 6 5 5 7 11 14 11 6 1 -4 -4 -3 -2 -2 -2 -0 2 6 10 13 16 18 18 16 13 10 8 7 6 5 4 2 1 -1 -1 -0 1 2 3 4 7 11 14 14 12 9 5
8 7 6 8 12 15 18 20 22 23 23 22 21 19 17 15 13 10 5 1 1 3 6 8 8 9 10 12 12 10 6 2 -0 -2 -3 -3 -2 1 5 10 14 17 18 18 16 14 12 9 8 7 6 5 3 2 0 -0 0 1 2 3 2 3 6 12 17 20 20 16 12
10 8 6 5 7 9 12 14 16 18 21 22 21 18 13 7 4 1 -0 1 4 8 10 12 12 11 11 11 11 10 9 6 3 1 -1 -2 -0 2 6 10 13 15 15 15 14 13 11 10 8 7 6 4 3 2 1 1 2 3 3 3 2 2 5 9 16 20 20 18 14
13 11 8 6 6 6 7 9 10 13 15 18 20 19 16 10 4 -0 -2 1 9 14 17 17 15 14 13 13 12 11 9 7 5 3 1 0 1 3 5 7 9 11 12 12 12 11 11 10 9 8 7 4 3 2 2 2 3 3 3 2 2 3 5 9 14 17 18 16 14
16 14 12 9 8 6 6 6 7 8 10 13 16 18 18 17 12 7 5 7 15 20 22 21 18 16 15 15 15 14 12 10 8 6 4 3 3 4 5 6 7 8 9 9 10 10 10 10 10 9 7 5 3 2 2 3 3 3 3 3 2 4 6 10 14 17 17 16 14
15 15 14 12 11 10 8 7 6 6 7 9 11 14 16 17 15 14 14 16 22 25 24 21 18 17 16 16 17 16 16 15 13 12 11 9 9 8 8 8 7 7 7 7 8 8 9 9 9 9 7 6 4 4 4 4 4 4 4 3 3 5 7 11 15 17 17 15 12
11 12 12 13 13 13 12 12 11 9 8 8 8 10 12 14 14 14 16 20 24 24 21 17 14 12 12 13 14 15 15 15 16 16 16 16 14 13 12 11 9 7 6 5 6 7 7 8 8 8 8 7 7 6 6 6 6 5 5 4 4 5 8 12 16 17 16 12 8
6 8 9 9 10 12 13 14 15 14 13 12 10 9 9 10 11 12 14 18 20 18 14 9 6 6 7 10 12 13 13 13 13 14 15 16 16 15 14 12 10 8 6 4 4 4 4 5 6 7 7 8 8 8 7 7 7 7 6 5 5 7 9 14 16 16 13 9 5
4 4 5 5 6 7 9 11 14 16 17 17 16 14 12 9 8 9 10 12 13 11 7 3 2 4 6 9 11 12 12 12 11 11 11 12 14 15 16 16 14 11 7 2 -0 -1 -1 -1 1 3 5 6 8 8 9 9 8 8 7 6 6 8 11 15 14 12 8 4 3
3 3 2 2 2 2 3 5 8 11 14 17 19 19 18 15 11 8 7 7 7 5 3 1 2 4 6 9 11 12 12 12 11 10 10 10 12 15 18 22 22 20 15 8 2 -2 -5 -5 -3 -1 2 5 7 8 9 9 9 8 7 6 7 9 12 13 10 7 3 1 2
3 3 2 2 1 1 0 1 2 5 7 11 15 18 20 21 18 14 10 6 5 3 2 2 2 4 6 8 10 11 11 11 11 10 9 9 9 12 16 21 24 25 23 19 14 8 4 1 1 1 3 5 6 6 7 7 6 6 6 6 8 9 9 8 5 3 2 2 4
4 4 4 4 3 2 1 1 1 1 3 5 9 12 16 20 21 21 18 14 9 6 5 4 4 4 5 6 8 9 10 11 10 10 8 7 7 8 10 13 16 18 19 20 19 17 15 12 9 7 6 5 5 5 6 6 7 8 8 8 9 8 6 4 4 4 4 5 6
4 4 5 6 6 5 4 3 2 2 2 3 5 8 11 14 18 21 22 21 18 14 11 9 7 6 6 6 6 7 8 9 9 9 8 7 6 5 6 7 8 10 11 12 13 14 14 14 12 10 8 7 7 8 9 10 13 14 16 16 14 12 9 8 8 7 7 7 7
2 3 4 6 7 8 7 6 5 4 4 3 4 5 7 10 14 17 20 22 22 20 18 15 12 10 9 7 7 6 6 6 7 7 7 7 6 5 4 4 5 6 6 6 7 8 9 9 9 9 9 9 10 11 13 14 17 19 21 22 21 20 18 16 14 11 8 7 7
0 1 2 4 6 8 9 9 8 7 6 5 5 5 6 8 10 13 16 19 21 21 21 19 17 16 14 12 10 9 8 7 7 7 7 7 6 5 5 4 4 5 5 4 5 5 5 6 6 6 7 8 10 12 13 15 16 18 21 24 26 25 22 19 14 11 8 8 7
2 -0 0 1 3 6 8 9 9 9 8 8 7 6 6 6 8 10 13 15 18 20 20 20 19 18 17 16 15 14 13 12 11 10 10 9 9 9 8 7 6 6 6 6 6 6 6 6 6 6 7 8 10 11 12 13 14 17 20 24 25 24 20 15 12 9 8 7 7
13 4 -0 -1 0 2 5 7 8 9 9 9 9 8 7 6 7 9 11 13 16 18 19 20 19 19 19 19 18 17 17 16 16 16 15 15 13 13 12 12 11 11 11 11 11 11 11 11 10 10 11 11 12 12 12 13 14 16 20 22 22 19 15 12 9 8 7 7 6
32 18 7 1 -1 -0 1 4 6 7 8 9 9 9 8 7 6 7 9 11 14 16 18 18 18 19 19 19 20 19 18 18 18 18 18 17 15 14 14 14 15 16 17 17 18 18 18 18 17 16 15 14 13 12 11 12 14 16 19 20 17 15 12 9 7 7 7 8 8
47 37 24 10 3 -0 -1 1 4 6 7 7 8 9 9 8 7 7 8 9 11 14 15 16 17 18 18 18 18 19 18 17 16 16 16 15 14 14 14 15 17 19 20 21 21 22 21 21 19 17 15 13 11 10 10 11 13 15 16 16 14 12 9 7 6 7 8 9 9
46 48 41 28 15 6 -0 -1 2 5 6 6 6 7 8 8 8 8 8 8 9 10 11 13 14 15 15 15 16 16 17 16 15 15 14 14 14 14 15 15 16 18 19 20 21 21 20 18 16 13 11 10 9 9 9 11 13 14 15 14 12 10 8 7 7 9 10 10 9
31 43 49 45 32 19 7 -1 0 3 6 7 5 5 6 7 8 8 8 8 8 8 9 9 11 11 12 12 12 13 14 16 16 16 15 15 14 14 14 14 14 15 16 17 17 17 15 13 11 9 8 8 8 9 11 12 13 14 13 12 11 9 8 8 10 11 11 11 9
16 29 42 50 46 36 22 7 1 2 5 7 6 5 4 5 6 7 8 8 8 8 8 8 9 9 9 9 9 10 11 13 14 15 15 14 13 12 12 12 12 13 13 14 13 12 10 9 8 7 7 8 10 11 13 14 14 14 13 12 11 10 9 10 11 12 11 10 9
7 15 27 41 49 48 39 23 9 2 2 5 6 6 4 4 4 5 6 7 8 8 8 8 8 8 8 8 8 8 8 10 11 12 13 12 11 10 10 10 11 11 11 12 11 9 7 7 8 8 9 11 12 13 14 15 14 14 13 13 12 11 10 11 11 11 11 10 10
Height
5605 5607 5610 5612 5616 5619 5621 5622 5623 5624 5626 5628 5630 5633 5635 5637 5639 5641 5645 5648 5650 5652 5655 5657 5659 5661 5663 5665 5667 5670 5671 5672 5673 5673 5674 5676 5678 5680 5682 5684 5686 5689 5691 5693 5695 5697 5699 5701 5702 5704 5705 5706 5708 5710 5711 5712 5713 5714 5715 5716 5716 5717 5719 5720 5721 5721 5722 5723 5724
5606 5609 5611 5613 5615 5617 5620 5621 5623 5625 5627 5629 5631 5633 5635 5637 5639 5641 5643 5647 5650 5652 5654 5656 5658 5660 5662 5664 5666 5668 5670 5671 5672 5673 5674 5675 5677 5679 5681 5683 5685 5687 5689 5691 5693 5695 5697 5699 5700 5702 5703 5705 5706 5708 5709 5710 5711 5712 5713 5714 5715 5716 5717 5718 5719 5720 5720 5721 5721
5608 5611 5613 5615 5616 5617 5619 5621 5623 5626 5629 5631 5632 5634 5636 5638 5640 5642 5644 5646 5649 5651 5654 5656 5658 5660 5661 5663 5665 5667 5668 5670 5671 5672 5674 5675 5676 5678 5680 5681 5684 5686 5688 5690 5692 5694 5695 5697 5698 5700 5701 5703 5704 5706 5707 5708 5709 5710 5711 5712 5713 5714 5715 5716 5716 5717 5718 5719 5719
5611 5613 5616 5617 5618 5619 5620 5622 5624 5627 5630 5632 5634 5636 5637 5639 5641 5642 5644 5646 5648 5651 5653 5655 5657 5659 5661 5663 5665 5666 5667 5668 5670 5671 5672 5674 5675 5676 5678 5680 5682 5684 5686 5688 5690 5692 5693 5695 5696 5698 5699 5701 5702 5704 5705 5706 5707 5708 5709 5710 5711 5712 5713 5714 5714 5715 5716 5716 5717
5613 5615 5616 5619 5620 5621 5622 5624 5626 5628 5631 5632 5634 5636 5638 5640 5641 5643 5645 5646 5648 5650 5652 5654 5656 5658 5660 5662 5664 5665 5666 5667 5668 5670 5671 5672 5674 5675 5677 5679 5681 5683 5685 5687 5689 5690 5691 5693 5695 5696 5697 5699 5701 5702 5703 5704 5705 5706 5707 5708 5709 5710 5711 5712 5712 5713 5714 5714 5715
5615 5616 5617 5619 5621 5623 5625 5626 5628 5630 5631 5633 5635 5637 5638 5640 5642 5643 5645 5646 5647 5649 5651 5654 5656 5658 5660 5661 5663 5664 5665 5666 5667 5668 5670 5671 5673 5674 5676 5678 5680 5682 5684 5686 5687 5688 5690 5691 5693 5695 5696 5697 5699 5700 5701 5702 5703 5705 5706 5706 5707 5708 5709 5710 5710 5711 5711 5712 5712
5616 5616 5618 5619 5621 5623 5625 5627 5629 5630 5632 5633 5635 5637 5638 5640 5642 5643 5645 5646 5646 5648 5650 5652 5655 5656 5658 5660 5661 5663 5664 5665 5666 5667 5669 5670 5671 5673 5675 5677 5679 5681 5682 5684 5686 5687 5689 5690 5691 5693 5695 5696 5697 5698 5700 5701 5701 5703 5704 5705 5705 5706 5707 5707 5708 5709 5709 5710 5710
5616 5617 5618 5619 5621 5623 5625 5626 5628 5630 5632 5634 5635 5636 5638 5640 5641 5643 5644 5645 5646 5647 5648 5651 5653 5655 5656 5658 5660 5661 5662 5664 5665 5666 5668 5669 5671 5672 5674 5676 5678 5679 5681 5683 5684 5686 5687 5689 5690 5692 5693 5695 5696 5697 5698 5699 5700 5701 5702 5703 5703 5704 5705 5705 5706 5706 5707 5708 5708
5616 5617 5618 5619 5621 5622 5624 5626 5628 5630 5631 5633 5635 5636 5637 5639 5641 5642 5644 5645 5645 5646 5647 5649 5651 5654 5656 5657 5659 5660 5661 5662 5664 5665 5667 5668 5670 5671 5673 5675 5676 5678 5680 5681 5683 5685 5686 5687 5689 5690 5691 5693 5694 5695 5696 5697 5698 5699 5700 5701 5701 5702 5702 5703 5704 5704 5705 5706 5706
5615 5616 5617 5619 5621 5622 5624 5626 5627 5629 5631 5632 5634 5635 5637 5638 5640 5642 5643 5644 5644 5645 5646 5646 5649 5651 5654 5656 5657 5658 5659 5661 5662 5663 5665 5667 5668 5670 5671 5673 5675 5676 5678 5680 5681 5683 5685 5686 5687 5688 5690 5691 5692 5693 5694 5695 5696 5696 5697 5698 5699 5700 5700 5701 5701 5702 5703 5703 5704
5615 5616 5617 5619 5620 5622 5623 5625 5627 5629 5630 5632 5633 5635 5636 5637 5639 5641 5642 5643 5643 5644 5644 5645 5647 5650 5652 5654 5655 5656 5657 5659 5660 5661 5663 5665 5666 5668 5670 5671 5673 5675 5677 5678 5680 5681 5683 5684 5685 5686 5687 5688 5689 5691 5691 5692 5694 5695 5696 5696 5697 5698 5698 5699 5700 5700 5701 5701 5702
5614 5615 5616 5618 5620 5621 5623 5625 5626 5628 5630 5631 5632 5634 5636 5637 5638 5640 5641 5641 5642 5642 5642 5643 5646 5649 5651 5651 5652 5654 5656 5657 5659 5660 5661 5663 5665 5666 5668 5670 5671 5673 5675 5676 5678 5679 5681 5682 5683 5684 5685 5686 5687 5688 5689 5690 5691 5692 5693 5694 5695 5696 5696 5697 5697 5698 5698 5699 5700
5614 5615 5616 5617 5618 5620 5622 5624 5625 5627 5628 5630 5631 5633 5635 5636 5637 5638 5639 5640 5641 5641 5641 5643 5646 5647 5648 5649 5650 5652 5654 5656 5657 5659 5660 5661 5663 5665 5666 5668 5670 5672 5673 5675 5676 5677 5679 5680 5681 5682 5683 5684 5685 5686 5687 5688 5689 5690 5691 5692 5693 5693 5694 5695 5695 5696 5696 5697 5697
5614 5614 5615 5616 5618 5619 5620 5622 5624 5625 5627 5629 5631 5632 5634 5635 5636 5637 5638 5638 5639 5641 5642 5644 5645 5645 5645 5646 5649 5651 5653 5654 5656 5657 5659 5660 5662 5663 5665 5666 5668 5670 5671 5672 5674 5675 5676 5678 5679 5680 5681 5682 5683 5684 5685 5686 5687 5688 5689 5690 5690 5691 5692 5692 5693 5693 5694 5695 5695
5615 5615 5615 5616 5617 5618 5620 5621 5622 5624 5626 5628 5630 5631 5632 5633 5634 5635 5636 5637 5638 5640 5643 5644 5644 5643 5644 5645 5647 5649 5651 5653 5655 5656 5657 5659 5660 5661 5663 5665 5666 5668 5669 5671 5672 5673 5674 5676 5676 5677 5678 5680 5681 5681 5683 5684 5685 5686 5686 5687 5688 5689 5689 5690 5691 5691 5691 5692 5693
5615 5615 5616 5616 5617 5618 5619 5620 5622 5624 5626 5627 5629 5630 5631 5632 5633 5634 5635 5635 5636 5639 5642 5643 5642 5642 5642 5644 5646 5648 5650 5652 5653 5655 5656 5657 5659 5660 5661 5663 5665 5666 5667 5668 5670 5671 5672 5673 5674 5675 5676 5677 5678 5680 5681 5681 5682 5683 5684 5685 5686 5686 5687 5688 5688 5689 5689 5690 5690
5615 5615 5616 5616 5617 5618 5619 5620 5622 5624 5625 5627 5628 5629 5630 5631 5632 5632 5633 5634 5636 5638 5640 5641 5641 5640 5641 5643 5645 5646 5648 5650 5652 5653 5655 5656 5657 5659 5660 5662 5663 5664 5665 5666 5668 5669 5670 5671 5672 5673 5674 5675 5676 5677 5678 5679 5680 5681 5682 5683 5684 5684 5685 5686 5686 5686 5687 5687 5687
5615 5615 5615 5616 5617 5618 5619 5620 5622 5624 5625 5626 5627 5628 5629 5630 5631 5632 5632 5633 5635 5636 5638 5639 5639 5639 5640 5641 5643 5645 5646 5648 5650 5651 5653 5654 5656 5657 5659 5660 5661 5662 5663 5665 5666 5667 5668 5669 5670 5671 5672 5673 5674 5675 5676 5677 5678 5679 5680 5681 5682 5682 5683 5684 5684 5685 5685 5685 5685
5616 5616 5616 5616 5616 5617 5619 5620 5621 5623 5625 5626 5626 5627 5628 5629 5630 5631 5632 5633 5634 5635 5636 5636 5637 5638 5638 5640 5642 5643 5645 5646 5648 5650 5651 5652 5654 5656 5657 5658 5659 5660 5661 5662 5663 5664 5665 5666 5668 5669 5670 5671 5672 5673 5674 5675 5676 5677 5678 5679 5680 5680 5681 5681 5682 5682 5682 5682 5683
5616 5616 5616 5616 5616 5617 5618 5620 5621 5622 5624 5625 5626 5626 5627 5628 5629 5630 5631 5631 5632 5633 5634 5635 5636 5637 5637 5638 5640 5641 5643 5644 5646 5647 5649 5651 5652 5653 5655 5656 5657 5658 5659 5660 5661 5662 5663 5664 5666 5667 5668 5669 5670 5671 5672 5673 5674 5676 5676 5677 5678 5678 5678 5679 5679 5679 5680 5680 5681
5615 5616 5616 5616 5617 5617 5618 5619 5620 5621 5622 5623 5624 5626 5626 5627 5628 5628 5629 5630 5631 5632 5633 5634 5636 5636 5637 5637 5639 5640 5641 5643 5644 5646 5647 5649 5650 5651 5652 5654 5655 5656 5656 5658 5659 5660 5661 5662 5663 5665 5666 5667 5668 5669 5670 5671 5672 5673 5674 5675 5676 5676 5676 5676 5676 5677 5677 5677 5678
5615 5615 5616 5616 5616 5617 5617 5618 5619 5620 5621 5621 5622 5624 5625 5626 5627 5627 5628 5629 5630 5631 5631 5632 5634 5635 5636 5636 5637 5638 5640 5641 5642 5644 5645 5647 5648 5649 5650 5651 5652 5653 5655 5656 5656 5658 5659 5660 5661 5662 5664 5665 5666 5667 5668 5669 5670 5671 5672 5673 5673 5674 5674 5674 5674 5674 5674 5675 5676
5615 5615 5615 5615 5616 5616 5617 5617 5618 5618 5619 5620 5621 5622 5623 5624 5625 5626 5627 5628 5629 5629 5630 5631 5632 5633 5634 5635 5636 5637 5638 5639 5641 5642 5643 5645 5646 5647 5648 5649 5650 5651 5652 5653 5654 5655 5656 5658 5659 5660 5661 5663 5664 5665 5666 5667 5668 5669 5670 5671 5671 5671 5671 5671 5671 5672 5672 5672 5673
5614 5614 5614 5614 5615 5615 5616 5616 5617 5617 5618 5619 5619 5620 5621 5622 5623 5624 5625 5626 5627 5628 5628 5629 5630 5631 5632 5633 5634 5635 5636 5637 5639 5640 5641 5643 5644 5645 5646 5647 5648 5649 5650 5651 5652 5653 5654 5656 5657 5658 5659 5660 5661 5663 5664 5665 5666 5666 5667 5668 5668 5669 5669 5669 5669 5669 5669 5670 5670
5612 5612 5613 5613 5614 5614 5614 5615 5616 5616 5617 5618 5618 5619 5619 5620 5621 5622 5623 5624 5625 5626 5627 5628 5629 5630 5631 5631 5632 5633 5634 5636 5637 5638 5639 5641 5641 5643 5644 5645 5646 5646 5647 5648 5650 5651 5652 5653 5654 5656 5657 5658 5659 5660 5661 5662 5663 5664 5664 5665 5666 5666 5666 5666 5666 5666 5667 5667 5667
5610 5611 5611 5612 5612 5613 5613 5614 5614 5615 5616 5616 5617 5617 5618 5619 5619 5620 5621 5622 5623 5625 5626 5626 5627 5628 5629 5629 5630 5631 5632 5634 5635 5636 5637 5638 5639 5640 5641 5642 5643 5644 5645 5646 5647 5648 5649 5651 5651 5653 5654 5655 5656 5657 5658 5659 5660 5661 5661 5662 5663 5664 5664 5664 5664 5664 5664 5664 5665
5607 5608 5609 5610 5611 5611 5612 5612 5613 5613 5614 5614 5615 5616 5617 5617 5618 5618 5619 5620 5621 5622 5623 5624 5625 5626 5626 5627 5628 5629 5630 5631 5632 5633 5635 5636 5636 5637 5638 5639 5640 5641 5642 5643 5644 5646 5646 5648 5649 5650 5651 5652 5654 5654 5655 5656 5657 5658 5658 5659 5660 5661 5661 5661 5661 5661 5661 5662 5662
5606 5606 5607 5608 5609 5609 5610 5611 5611 5611 5612 5613 5613 5614 5615 5615 5616 5617 5618 5618 5619 5620 5621 5621 5622 5623 5623 5624 5625 5626 5627 5628 5630 5631 5632 5633 5634 5635 5636 5636 5637 5638 5639 5641 5642 5643 5644 5645 5646 5647 5649 5650 5651 5651 5652 5653 5654 5655 5655 5656 5657 5657 5658 5658 5657 5658 5658 5659 5660
5605 5604 5605 5605 5606 5607 5608 5609 5609 5610 5611 5611 5611 5612 5613 5613 5614 5615 5616 5616 5617 5618 5618 5619 5619 5620 5621 5621 5622 5623 5624 5626 5626 5628 5629 5630 5631 5632 5633 5634 5635 5636 5637 5638 5640 5641 5641 5642 5644 5645 5646 5647 5648 5648 5649 5650 5650 5651 5652 5653 5653 5654 5654 5654 5654 5655 5656 5657 5658
5604 5604 5603 5603 5604 5605 5606 5606 5607 5608 5609 5609 5610 5610 5611 5611 5612 5613 5613 5614 5615 5616 5616 5617 5617 5618 5618 5619 5620 5621 5622 5623 5624 5625 5626 5627 5629 5630 5631 5631 5632 5633 5635 5636 5637 5638 5639 5640 5641 5642 5643 5644 5645 5645 5646 5646 5647 5647 5648 5649 5649 5650 5650 5650 5651 5652 5654 5655 5656
5603 5603 5602 5602 5602 5602 5603 5604 5605 5606 5607 5607 5608 5608 5609 5609 5610 5611 5611 5612 5612 5613 5614 5614 5615 5616 5616 5617 5618 5619 5620 5620 5621 5622 5623 5624 5626 5626 5627 5628 5630 5631 5632 5633 5635 5636 5636 5638 5639 5640 5641 5641 5642 5642 5643 5644 5644 5645 5645 5646 5646 5646 5646 5646 5648 5650 5651 5653 5653
5602 5601 5601 5601 5601 5601 5601 5601 5602 5603 5604 5605 5606 5606 5607 5607 5608 5608 5609 5610 5610 5611 5611 5612 5613 5613 5614 5615 5616 5616 5617 5618 5619 5620 5621 5622 5622 5624 5625 5626 5626 5628 5629 5630 5631 5632 5633 5634 5636 5636 5637 5638 5639 5640 5641 5641 5642 5642 5643 5643 5643 5643 5644 5645 5647 5648 5649 5650 5651
5601 5600 5600 5600 5600 5600 5599 5600 5600 5601 5601 5602 5603 5604 5605 5605 5606 5606 5607 5607 5608 5609 5609 5610 5610 5611 5612 5612 5613 5614 5615 5616 5616 5617 5618 5619 5620 5621 5621 5622 5623 5625 5626 5627 5628 5629 5630 5631 5632 5633 5634 5635 5636 5636 5637 5638 5639 5640 5640 5641 5641 5642 5643 5644 5645 5646 5647 5647 5648
5599 5599 5599 5598 5598 5598 5598 5598 5598 5598 5599 5600 5600 5601 5602 5603 5604 5604 5605 5605 5606 5606 5607 5607 5608 5609 5609 5610 5611 5611 5612 5613 5614 5615 5616 5616 5617 5618 5619 5620 5621 5621 5622 5624 5625 5626 5626 5627 5628 5629 5630 5631 5632 5633 5634 5635 5636 5637 5637 5638 5639 5640 5641 5642 5643 5644 5644 5645 5645
5597 5597 5597 5597 5597 5597 5597 5596 5596 5596 5597 5597 5598 5598 5600 5601 5601 5602 5603 5603 5604 5604 5605 5605 5606 5606 5607 5607 5608 5609 5610 5610 5611 5612 5613 5614 5615 5615 5616 5617 5618 5619 5620 5621 5621 5622 5623 5624 5625 5626 5627 5628 5629 5631 5631 5632 5633 5634 5635 5636 5637 5638 5639 5640 5640 5641 5641 5642 5642
5595 5595 5595 5595 5595 5595 5595 5595 5595 5595 5595 5595 5596 5596 5597 5598 5599 5600 5601 5601 5602 5602 5602 5603 5603 5604 5605 5605 5606 5606 5607 5608 5609 5609 5610 5611 5612 5613 5614 5615 5615 5616 5617 5618 5619 5620 5621 5621 5622 5623 5625 5626 5626 5628 5629 5630 5631 5631 5633 5634 5635 5636 5636 5637 5638 5638 5639 5639 5640
5592 5592 5592 5593 5593 5593 5593 5593 5593 5593 5593 5593 5594 5594 5595 5595 5596 5597 5598 5599 5600 5600 5601 5601 5601 5602 5602 5603 5604 5604 5605 5606 5606 5607 5608 5608 5609 5610 5611 5612 5613 5614 5614 5615 5616 5617 5618 5619 5620 5621 5622 5623 5624 5625 5626 5627 5628 5629 5630 5631 5632 5633 5634 5634 5635 5636 5636 5637 5638
5589 5589 5589 5590 5591 5591 5591 5591 5592 5591 5591 5591 5592 5592 5593 5593 5594 5595 5596 5597 5597 5598 5599 5599 5600 5600 5600 5601 5602 5602 5603 5603 5604 5605 5605 5606 5607 5608 5609 5610 5611 5611 5612 5613 5614 5614 5615 5616 5617 5618 5619 5620 5621 5622 5623 5624 5626 5627 5628 5629 5630 5631 5631 5632 5633 5633 5634 5635 5635
5587 5586 5586 5586 5587 5588 5589 5590 5590 5590 5590 5590 5590 5590 5591 5591 5591 5592 5592 5594 5595 5596 5597 5597 5598 5598 5599 5599 5600 5601 5601 5601 5602 5602 5603 5604 5605 5606 5606 5607 5609 5609 5610 5611 5611 5612 5613 5614 5615 5616 5616 5618 5619 5620 5621 5622 5623 5625 5626 5627 5628 5629 5629 5630 5631 5631 5632 5632 5633
5585 5584 5584 5583 5584 5585 5586 5586 5587 5588 5588 5588 5588 5588 5588 5589 5589 5590 5590 5591 5592 5593 5594 5595 5596 5596 5597 5598 5598 5599 5600 5600 5600 5601 5601 5602 5602 5603 5604 5606 5606 5607 5608 5609 5609 5610 5611 5611 5612 5613 5614 5616 5617 5618 5619 5621 5621 5622 5624 5625 5626 5626 5627 5628 5628 5629 5629 5630 5631
5582 5582 5581 5581 5581 5581 5582 5583 5584 5585 5586 5586 5586 5586 5586 5586 5586 5587 5588 5588 5589 5590 5591 5592 5593 5594 5595 5596 5596 5597 5598 5599 5599 5599 5600 5600 5601 5601 5602 5604 5605 5606 5607 5607 5607 5608 5609 5609 5610 5611 5612 5614 5615 5616 5617 5619 5620 5621 5621 5622 5623 5624 5625 5626 5626 5627 5627 5628 5629